Find Starlink 32148

NORAD ID: 60263 Int'l Des: 2024-131 Owner: SPXS Country: US Constellation: starlink operational
LEOCIRCULAR

Current View

Loading 3D Globe...

About Starlink 32148

Starlink 32148 (NORAD 60263) is a starlink constellation satellite (v2 mini) launched Jul 27, 2024 by SPXS of US. It operates in LEO, CIRCULAR orbit with a mass of 730.00 kg.

Upcoming Passes

Passes for default location (London). Set your location on the main map for personalized predictions.

Altitude History

Loading altitude history...

Two-Line Element Set

1 60263U 24131J 26236.29314823 -.00000092 00000-0 87827-5 0 9998
2 60263 53.1609 352.9229 0001054 79.8291 280.2829 15.31703456117444
Epoch: Aug 24, 2026 • Age: 30 hours

Current Status

Altitude 473.4 km
Apogee / Perigee N/A
Velocity 7.63 km/s
Sub-Earth Point 38.11°N, 42.85°W
Launch Date Jul 27, 2024
Age 2 years
Type internet

Technical Details

Classification Payload
Mass 730.00 kg
Dry Mass 700.00 kg
Total Mass 730.00 kg
Length 0.30 m
Diameter 4.10 m
Span 29.00 m
Shape Box + pan
Manufacturer SPXS
Bus Type Starlink V2M
Phase Status In Orbit
Owner/State SPXS/US

Most Searched